Vorticity
-1 3 14 7 1 6 11 7 6 3 0 5 2 31 12 10 26 22 2 11 4 7 4 5 5 5 7 8 5 2 3 1 8 9 6 6 6 7 10 8 7 7 7 7 5 5 5 5 6
1 14 -3 -5 11 -1 6 11 6 8 6 10 0 5 7 17 23 7 4 6 4 5 3 5 3 4 6 6 6 6 0 5 6 7 4 7 6 9 7 8 6 7 6 5 5 5 5 5 6
6 0 0 9 4 7 4 12 8 11 -0 4 10 9 12 7 0 11 8 5 5 5 4 4 5 5 6 4 7 9 6 7 6 6 6 6 7 8 8 7 5 7 6 5 5 5 5 5 5
22 -12 -2 19 6 6 8 12 11 6 4 16 -4 8 13 -3 8 8 7 4 6 8 9 7 7 6 2 -0 6 8 10 8 7 5 7 9 8 7 6 7 5 5 6 4 1 7 10 5 5
8 -4 13 7 4 3 8 5 6 8 8 6 6 1 11 8 10 6 6 5 2 -5 9 17 16 5 1 0 7 8 8 7 6 6 8 8 6 6 7 7 5 4 5 3 5 7 5 4 6
-26 14 9 5 7 4 5 6 10 14 13 17 13 2 11 8 6 5 5 3 5 9 7 15 19 8 3 4 7 7 6 7 6 6 8 7 7 7 7 6 6 8 2 4 4 5 8 9 8
16 35 3 9 6 6 5 8 11 10 7 4 5 7 11 5 7 5 5 8 6 13 2 4 8 7 6 8 8 7 6 5 6 6 8 6 6 7 6 7 7 6 3 4 2 5 -11 -1 10
-22 -5 7 1 5 6 5 12 4 11 11 7 -11 7 5 6 7 7 7 6 18 -3 0 6 6 6 6 4 5 6 6 6 6 5 7 6 7 5 7 7 6 6 6 5 5 0 5 13 5
-16 17 4 15 6 7 6 1 15 7 6 10 21 17 5 10 8 7 6 9 -15 -13 7 6 5 6 6 6 5 7 6 6 6 5 4 7 7 7 5 5 6 6 5 4 4 -5 6 6 33
25 9 11 3 11 10 8 7 8 4 12 6 9 7 8 8 6 4 14 11 11 10 9 5 5 6 6 5 6 6 7 7 6 6 7 5 7 5 6 8 6 6 6 8 4 1 5 29 -2
14 4 13 13 12 7 6 9 11 3 9 5 7 6 11 8 5 5 6 7 13 11 9 8 8 5 5 5 7 -1 4 4 5 4 3 4 5 8 4 4 5 6 4 5 9 5 5 9 5
7 11 8 10 9 10 8 8 -0 17 15 10 11 6 7 6 6 6 5 6 9 11 8 7 5 6 5 5 5 7 7 5 5 5 5 4 8 4 7 4 6 8 5 4 7 4 4 5 6
5 9 8 8 6 10 6 8 7 13 12 10 10 6 5 5 8 8 8 10 8 4 4 5 6 6 7 7 8 7 6 7 6 5 6 10 3 6 7 7 3 4 7 -0 6 6 4 7 9
6 2 7 5 6 6 6 9 1 17 12 7 6 6 6 8 8 9 8 5 5 6 6 4 6 6 7 7 6 6 6 8 3 9 10 4 9 8 8 9 6 9 8 0 7 7 6 3 4
7 0 7 4 2 12 6 10 12 17 10 5 4 4 5 6 6 7 8 10 8 7 6 5 7 7 5 5 4 4 5 4 5 5 7 6 6 5 6 6 7 7 4 5 8 -4 3 5 8
6 15 -11 12 7 5 7 5 12 8 10 6 5 4 5 4 4 4 2 8 6 6 7 8 8 8 10 9 8 8 7 7 8 6 6 8 10 9 4 8 8 9 9 10 5 8 10 7 7
22 -2 7 10 8 8 9 6 15 3 6 12 4 6 5 5 2 3 5 2 4 5 6 6 7 7 7 9 9 7 7 8 5 10 5 4 6 6 6 4 6 6 7 7 8 2 10 8 3
-1 19 2 11 6 11 6 7 13 6 6 10 10 6 7 5 5 4 7 4 6 3 4 5 6 7 7 7 7 7 6 5 10 6 6 8 7 6 6 7 7 6 7 6 3 6 6 6 10
9 8 7 7 12 -0 4 10 11 7 7 8 10 10 8 7 9 5 7 2 3 3 4 4 4 5 6 7 6 7 5 3 4 3 10 7 7 7 8 7 8 8 7 9 9 9 8 7 3
12 11 8 3 10 11 3 11 9 11 7 8 9 10 9 10 9 9 6 4 11 2 5 6 6 5 5 6 6 9 8 8 7 5 5 6 10 5 8 7 5 6 5 7 6 9 7 7 9
4 3 7 21 7 2 7 4 7 11 8 6 7 8 10 9 9 7 9 7 7 0 8 6 7 7 7 6 6 6 8 9 10 10 10 11 8 9 8 4 5 5 6 6 8 6 6 6 7
22 8 3 6 10 6 4 20 2 10 9 7 6 6 9 10 9 7 6 10 8 -0 6 10 13 12 10 8 8 8 10 10 6 8 18 13 12 10 10 8 9 7 7 7 7 10 0 3 8
-3 16 9 5 6 1 -5 19 3 14 4 9 12 5 8 11 10 8 8 6 10 3 0 5 5 6 10 10 9 8 6 6 2 3 4 13 13 10 7 4 7 8 8 6 6 6 6 6 5
9 4 5 5 1 15 25 10 19 11 15 10 10 13 8 8 11 8 8 10 10 4 6 6 7 5 4 4 5 5 6 5 5 4 4 3 3 3 4 2 3 5 4 6 4 5 4 4 4
5 3 10 7 18 7 3 6 7 1 12 24 16 11 11 9 7 8 10 7 8 7 -6 8 8 8 9 7 7 7 6 6 4 3 3 4 3 8 -2 5 9 8 12 11 11 8 12 14 14
3 10 -17 10 12 44 2 12 21 16 5 10 9 13 11 12 12 17 9 9 9 5 -3 2 4 5 11 9 8 5 3 5 4 4 4 5 6 6 10 9 8 11 14 14 12 13 10 9 1
20 16 7 0 15 14 -1 12 -1 11 5 10 7 6 9 11 16 19 21 13 11 -1 -4 4 6 10 5 5 8 5 5 7 5 7 6 4 3 4 4 5 4 6 8 9 7 4 8 11 7
0 -7 18 6 11 10 26 0 31 8 4 6 8 4 3 9 10 12 15 15 13 14 11 5 -1 2 1 8 2 -5 5 7 11 4 3 2 3 3 3 1 3 3 4 6 5 3 3 3 6
9 2 3 7 6 -16 11 25 32 7 6 5 6 11 3 3 10 11 11 15 14 12 1 1 24 11 -1 1 3 2 -11 -10 8 3 20 1 -5 9 0 6 3 1 5 4 9 6 3 2 3
12 -7 13 -8 15 6 4 25 -5 11 11 5 7 7 7 4 4 7 11 14 21 21 15 7 5 24 18 14 2 4 25 12 27 51 37 3 -3 2 3 6 5 7 5 3 3 9 5 5 4
Height
3187 3188 3187 3186 3188 3186 3187 3191 3192 3193 3194 3194 3194 3193 3194 3193 3193 3199 3200 3202 3203 3200 3201 3203 3204 3205 3206 3207 3208 3210 3210 3211 3210 3211 3211 3211 3211 3211 3211 3211 3212 3213 3214 3215 3215 3215 3215 3215 3216
3190 3190 3189 3187 3188 3185 3192 3192 3194 3194 3196 3196 3196 3197 3196 3196 3195 3196 3199 3201 3205 3202 3203 3204 3206 3207 3208 3209 3209 3211 3211 3211 3212 3212 3212 3212 3213 3212 3213 3214 3215 3215 3216 3217 3217 3217 3218 3218 3218
3192 3192 3191 3191 3190 3192 3194 3196 3196 3197 3198 3197 3197 3199 3199 3198 3199 3201 3200 3204 3206 3205 3204 3206 3207 3209 3210 3211 3211 3212 3212 3212 3213 3213 3214 3214 3214 3214 3215 3217 3217 3218 3219 3219 3219 3219 3220 3220 3220
3193 3194 3194 3195 3195 3198 3199 3199 3199 3200 3200 3200 3199 3199 3200 3201 3203 3201 3202 3208 3207 3204 3207 3207 3209 3210 3212 3213 3213 3214 3214 3214 3215 3214 3215 3216 3216 3217 3218 3218 3219 3219 3220 3221 3221 3221 3221 3222 3222
3195 3193 3194 3196 3198 3200 3201 3201 3201 3201 3202 3203 3203 3202 3201 3202 3203 3203 3205 3210 3209 3206 3207 3208 3209 3211 3213 3214 3215 3215 3215 3216 3216 3216 3217 3217 3218 3219 3220 3220 3221 3221 3222 3223 3223 3223 3223 3223 3223
3194 3197 3195 3197 3201 3203 3203 3203 3203 3203 3204 3205 3205 3205 3204 3203 3204 3205 3210 3210 3208 3208 3209 3209 3210 3213 3214 3215 3216 3216 3216 3217 3218 3219 3219 3219 3221 3221 3222 3222 3223 3224 3224 3225 3225 3224 3225 3225 3225
3191 3195 3198 3200 3203 3205 3205 3205 3205 3205 3206 3208 3208 3206 3206 3207 3206 3209 3212 3212 3211 3209 3211 3211 3212 3214 3216 3216 3217 3218 3218 3220 3220 3221 3221 3222 3223 3224 3224 3224 3225 3225 3226 3227 3227 3226 3226 3226 3226
3189 3194 3199 3202 3204 3207 3207 3206 3207 3207 3207 3208 3209 3208 3208 3206 3208 3212 3213 3213 3209 3211 3212 3213 3214 3216 3217 3218 3218 3219 3221 3222 3222 3223 3223 3224 3225 3226 3226 3226 3226 3227 3227 3227 3228 3228 3227 3225 3226
3197 3196 3201 3204 3206 3208 3208 3208 3207 3207 3208 3210 3210 3209 3207 3207 3210 3213 3213 3212 3213 3213 3216 3216 3217 3218 3218 3219 3220 3221 3223 3224 3224 3225 3226 3227 3227 3227 3227 3228 3228 3228 3228 3228 3228 3228 3227 3224 3225
3202 3204 3208 3207 3207 3209 3210 3210 3209 3211 3210 3210 3208 3207 3208 3209 3212 3215 3212 3214 3214 3215 3217 3218 3219 3220 3221 3221 3223 3224 3225 3225 3227 3227 3228 3229 3230 3229 3229 3230 3229 3229 3230 3230 3229 3228 3225 3204 3222
3208 3210 3210 3210 3210 3211 3212 3212 3212 3213 3213 3212 3210 3208 3210 3211 3215 3217 3218 3218 3218 3219 3219 3220 3220 3221 3223 3224 3225 3225 3226 3228 3229 3229 3229 3230 3230 3230 3230 3230 3231 3231 3231 3230 3230 3229 3230 3227 3227
3212 3213 3213 3213 3213 3213 3213 3213 3214 3214 3214 3213 3211 3211 3212 3214 3218 3220 3221 3221 3219 3220 3220 3221 3223 3224 3224 3226 3226 3229 3230 3230 3229 3230 3230 3231 3231 3232 3232 3231 3232 3232 3231 3231 3231 3230 3229 3229 3229
3213 3215 3214 3214 3215 3215 3215 3215 3215 3215 3215 3214 3213 3214 3216 3219 3219 3221 3221 3220 3220 3221 3222 3224 3225 3225 3226 3227 3227 3228 3229 3230 3232 3231 3232 3232 3232 3232 3232 3233 3232 3233 3232 3231 3232 3230 3230 3229 3228
3213 3213 3214 3216 3216 3216 3217 3216 3216 3216 3217 3216 3217 3219 3220 3221 3221 3220 3221 3221 3221 3222 3223 3224 3225 3226 3227 3227 3228 3229 3230 3230 3231 3231 3232 3232 3232 3232 3232 3233 3232 3233 3232 3231 3232 3231 3231 3229 3229
3206 3207 3210 3216 3217 3217 3215 3217 3218 3217 3218 3218 3220 3222 3223 3223 3222 3221 3221 3221 3222 3223 3224 3224 3225 3226 3226 3227 3228 3229 3230 3230 3231 3231 3232 3233 3233 3233 3232 3233 3233 3232 3232 3232 3231 3230 3230 3229 3228
3210 3208 3210 3217 3218 3216 3216 3219 3218 3217 3218 3219 3222 3222 3223 3224 3224 3222 3222 3222 3223 3224 3224 3225 3225 3225 3226 3226 3227 3228 3229 3230 3230 3232 3232 3232 3232 3232 3232 3232 3232 3231 3231 3231 3232 3232 3230 3228 3228
3205 3206 3210 3215 3218 3218 3215 3218 3219 3219 3220 3220 3221 3221 3222 3222 3224 3222 3223 3223 3223 3224 3224 3224 3225 3225 3226 3226 3226 3228 3228 3229 3231 3231 3231 3231 3231 3231 3231 3231 3231 3232 3232 3231 3230 3230 3230 3228 3227
3211 3209 3211 3212 3217 3218 3215 3216 3218 3219 3221 3220 3220 3221 3221 3222 3222 3223 3223 3223 3224 3224 3224 3225 3225 3226 3226 3226 3227 3227 3229 3229 3230 3231 3232 3232 3232 3232 3231 3231 3231 3231 3231 3230 3230 3230 3229 3228 3227
3215 3213 3211 3214 3216 3215 3215 3215 3217 3219 3220 3220 3220 3221 3221 3222 3222 3222 3223 3223 3224 3224 3224 3225 3225 3226 3227 3227 3227 3227 3227 3230 3229 3230 3231 3231 3231 3231 3232 3232 3230 3231 3231 3230 3230 3229 3228 3227 3226
3214 3211 3210 3214 3215 3215 3215 3214 3215 3218 3219 3220 3220 3221 3221 3221 3222 3222 3223 3223 3223 3224 3224 3225 3225 3225 3226 3226 3227 3227 3228 3229 3230 3230 3230 3229 3230 3230 3230 3230 3230 3230 3230 3230 3230 3229 3227 3225 3223
3211 3207 3207 3210 3211 3212 3213 3214 3213 3216 3218 3219 3220 3220 3220 3220 3221 3221 3222 3223 3223 3223 3223 3224 3225 3225 3226 3226 3227 3228 3228 3229 3230 3230 3229 3228 3229 3229 3229 3229 3229 3229 3228 3228 3227 3226 3226 3224 3222
3206 3209 3210 3210 3211 3216 3207 3207 3210 3212 3215 3217 3218 3219 3219 3219 3220 3221 3221 3222 3223 3222 3222 3223 3224 3224 3225 3225 3226 3227 3228 3228 3228 3228 3227 3228 3228 3229 3230 3229 3229 3229 3228 3227 3226 3224 3224 3223 3222
3211 3210 3210 3209 3207 3202 3201 3197 3202 3206 3210 3213 3215 3217 3219 3219 3219 3220 3221 3221 3223 3222 3221 3222 3223 3224 3225 3225 3226 3226 3227 3228 3228 3229 3229 3229 3228 3229 3229 3229 3228 3228 3227 3225 3225 3224 3221 3219 3219
3211 3210 3210 3209 3205 3197 3194 3198 3195 3201 3206 3209 3211 3214 3216 3218 3219 3219 3220 3221 3221 3221 3220 3220 3222 3223 3224 3225 3226 3227 3228 3228 3228 3228 3229 3229 3228 3227 3227 3227 3227 3225 3224 3223 3223 3221 3219 3218 3215
3210 3206 3201 3200 3196 3190 3193 3200 3195 3201 3204 3205 3208 3211 3214 3216 3217 3218 3219 3219 3219 3219 3218 3219 3220 3221 3223 3224 3225 3226 3227 3227 3227 3227 3227 3227 3228 3227 3226 3224 3224 3223 3222 3220 3219 3217 3216 3214 3212
3204 3202 3195 3193 3186 3183 3193 3196 3195 3199 3203 3206 3208 3209 3212 3213 3214 3215 3216 3217 3217 3217 3215 3217 3219 3219 3221 3222 3222 3223 3224 3225 3226 3226 3226 3225 3225 3224 3224 3223 3221 3220 3218 3217 3215 3214 3213 3211 3209
3199 3197 3196 3191 3185 3186 3185 3192 3196 3199 3202 3204 3206 3208 3210 3210 3211 3211 3214 3214 3214 3212 3214 3215 3216 3218 3219 3220 3220 3221 3221 3222 3222 3223 3223 3222 3222 3222 3222 3221 3220 3218 3216 3214 3213 3212 3211 3209 3206
3196 3195 3196 3194 3190 3185 3181 3186 3187 3194 3198 3202 3204 3206 3208 3209 3208 3208 3209 3212 3211 3210 3211 3212 3213 3214 3216 3216 3217 3218 3218 3218 3218 3218 3219 3220 3219 3220 3219 3219 3218 3216 3215 3212 3211 3209 3207 3206 3203
3193 3192 3193 3188 3188 3184 3182 3179 3179 3188 3194 3199 3201 3204 3206 3207 3207 3207 3207 3207 3207 3207 3209 3209 3209 3210 3211 3213 3213 3215 3215 3215 3213 3212 3213 3216 3217 3217 3217 3216 3215 3213 3211 3209 3208 3206 3205 3203 3200
3186 3187 3189 3187 3187 3182 3178 3178 3184 3186 3191 3196 3198 3202 3204 3204 3203 3203 3203 3202 3202 3203 3205 3207 3207 3208 3208 3210 3211 3212 3212 3212 3209 3205 3205 3210 3213 3214 3213 3212 3211 3209 3207 3205 3203 3203 3201 3199 3197